Theta_e
313 314 315 316 316 315 317 317 317 318 318 317 317 316 316 316 316 316 316 316 316 315 314 312 311 311 311 311 311 310 310 310 310 310 311 311 312 314 314 314 314 315 314 314
313 315 316 317 315 314 316 317 317 317 318 315 315 316 316 316 317 317 316 315 315 315 313 312 312 311 311 311 311 310 310 310 310 310 310 310 310 311 312 312 312 313 313 313
316 318 315 315 316 316 316 317 317 316 316 315 316 317 319 318 317 316 314 313 313 314 312 310 309 309 310 310 310 310 310 309 308 308 307 308 308 309 309 309 310 310 310 311
317 315 314 314 315 315 316 315 315 315 315 318 316 318 318 319 319 317 315 315 314 312 309 307 307 308 309 309 309 310 309 309 309 308 307 306 306 307 307 307 307 307 307 307
317 313 312 313 314 313 315 312 312 313 314 316 317 317 319 319 318 315 315 309 309 308 306 305 305 305 305 306 308 308 309 309 308 307 305 305 305 305 305 305 305 305 305 304
313 309 311 313 312 311 311 312 314 315 315 318 319 319 319 317 316 315 312 308 307 306 305 303 302 302 304 305 305 305 306 307 308 308 307 305 303 303 303 304 304 304 303 303
317 314 311 310 311 311 310 314 319 321 322 322 320 319 318 317 317 313 311 308 307 306 305 303 302 301 300 298 298 301 303 303 304 305 306 306 306 304 303 302 302 303 302 302
316 316 313 311 313 316 315 316 319 325 324 323 319 318 317 316 312 309 309 308 306 305 303 303 301 300 300 302 302 300 300 301 301 301 301 302 303 304 304 303 302 301 300 300
316 317 311 311 312 312 316 314 314 316 317 319 317 316 316 316 313 310 309 307 304 303 301 299 299 299 299 299 299 299 299 297 296 296 298 299 299 299 301 303 302 301 300 299
315 317 315 313 309 310 311 310 315 315 317 318 315 315 315 314 313 309 307 304 302 300 298 297 296 296 297 298 298 299 300 300 301 300 298 298 297 297 297 299 301 301 300 299
312 314 314 314 313 313 313 314 313 312 314 317 317 315 313 313 309 306 303 302 300 298 297 295 294 293 293 293 293 293 294 294 294 295 296 295 296 295 295 295 297 299 300 299
313 314 316 313 312 311 312 313 313 314 314 314 314 314 313 312 304 302 301 300 297 296 295 293 292 291 291 291 290 290 290 290 290 289 290 291 292 293 293 292 293 295 297 299
311 312 312 312 309 312 313 312 311 312 313 315 316 315 311 309 307 300 299 298 296 295 295 292 291 290 290 290 289 288 288 288 288 288 288 288 288 288 289 290 291 291 292 295
307 309 312 313 312 309 309 308 307 309 311 311 311 309 308 306 304 299 297 295 293 292 293 293 290 290 290 289 289 288 288 288 288 288 287 287 287 287 287 287 287 288 290 290
305 307 307 307 306 304 303 304 304 304 305 306 306 305 304 303 298 297 295 294 292 291 291 292 290 289 289 289 289 288 287 287 287 287 287 287 286 286 286 286 286 286 286 286
300 304 302 301 301 301 302 302 301 301 301 301 301 301 301 295 294 294 292 291 291 291 291 291 290 289 289 288 288 288 287 287 287 286 287 287 286 286 286 286 286 286 286 285
300 300 301 301 299 298 297 297 298 298 299 299 298 298 294 294 292 291 290 290 291 291 291 290 290 289 289 289 288 288 287 287 286 286 286 286 286 286 286 286 286 286 285 285
297 297 297 297 295 295 296 295 296 296 296 297 297 296 293 291 291 290 290 290 290 290 289 289 289 289 289 289 288 287 286 286 285 284 284 284 285 285 285 286 286 286 285 285
295 295 295 294 296 296 294 295 294 294 294 294 295 294 292 291 290 290 290 290 290 289 289 289 289 289 289 288 287 286 285 284 284 283 283 283 283 282 283 283 284 285 285 285
292 295 296 295 293 293 294 292 291 291 292 293 294 292 291 290 290 291 290 289 289 289 289 289 289 288 287 286 285 284 283 283 282 282 281 281 281 281 280 281 282 282 282 283
292 293 295 295 295 294 294 291 290 291 292 291 291 291 290 292 291 290 289 289 289 288 287 287 286 285 285 283 281 281 280 280 280 279 279 279 279 279 279 278 278 278 279 280
291 292 292 292 293 293 292 291 290 292 291 290 290 290 290 290 289 289 288 287 287 286 285 284 282 281 280 279 277 276 276 276 276 276 275 275 275 276 277 276 275 274 274 274
290 292 292 292 292 292 290 291 290 291 291 290 290 290 290 288 287 286 285 284 283 281 280 279 278 277 277 275 273 272 272 271 271 270 270 269 269 270 270 270 270 270 271 271
291 291 292 292 291 292 291 291 290 290 290 290 290 289 286 284 284 283 282 280 279 278 277 275 275 275 274 272 270 268 267 266 265 264 264 264 264 264 265 266 266 267 268 269
292 292 292 292 292 291 291 290 290 290 290 289 288 286 285 283 282 280 279 278 276 275 274 273 273 272 271 269 267 266 265 264 263 262 262 262 262 262 263 263 264 265 266 267
291 292 292 292 291 291 291 290 290 289 288 287 286 284 282 281 279 278 277 275 274 274 273 272 271 269 268 266 265 264 263 263 262 262 262 262 262 262 262 262 263 264 265 267
Wind_Speed
10 9 11 17 16 19 20 19 21 19 19 20 21 21 19 27 28 28 29 19 11 6 6 8 13 14 15 13 11 7 5 8 11 16 21 27 33 35 38 41 43 43 44 45
4 13 15 15 9 13 17 21 21 18 13 6 16 20 25 19 24 15 13 11 6 5 8 15 18 18 19 16 15 14 14 12 11 11 15 18 21 27 32 36 39 42 43 45
17 14 7 8 14 17 19 20 19 21 19 13 14 15 6 9 15 5 5 4 3 6 15 19 21 19 18 18 17 15 13 10 9 10 12 15 19 24 27 29 34 37 41 44
13 8 9 13 18 16 18 15 13 12 7 9 8 8 14 6 8 5 8 15 15 19 19 19 19 20 20 19 16 15 14 13 12 10 9 11 16 19 21 23 27 30 35 36
3 3 3 8 8 5 6 2 6 8 11 16 12 7 4 6 4 12 12 21 20 20 19 19 20 20 20 21 21 16 12 11 11 11 9 9 11 14 17 19 23 28 30 33
19 0 5 11 2 7 3 6 12 11 8 9 12 10 3 2 10 8 17 18 16 16 16 17 16 16 18 19 19 20 19 18 16 13 12 12 14 14 17 17 18 24 28 31
9 15 6 7 6 5 6 8 6 8 7 11 8 7 9 4 14 6 11 12 14 13 15 14 16 17 17 17 17 21 24 23 22 20 18 16 16 17 18 18 19 19 28 30
12 11 10 11 7 7 8 6 7 6 11 16 14 13 9 7 13 15 15 13 11 14 16 18 17 17 19 25 28 27 25 22 22 23 24 23 21 20 20 21 21 22 24 27
9 11 5 5 1 2 2 6 7 6 14 10 16 22 21 16 10 12 12 13 17 19 20 20 21 22 23 22 22 23 24 22 23 24 25 25 26 27 27 25 24 25 28 28
3 10 7 3 2 8 7 2 6 5 5 17 19 19 14 13 7 8 10 11 12 11 13 16 18 20 21 23 25 24 24 26 28 30 30 28 27 26 26 27 28 27 26 27
7 7 18 13 11 14 8 10 11 10 10 15 19 17 12 7 8 8 8 7 11 12 12 12 14 15 16 16 18 21 24 25 27 28 29 30 30 29 28 27 27 29 30 28
7 5 13 22 22 22 20 21 19 14 19 14 16 20 21 10 11 12 13 7 5 7 11 10 11 12 15 17 18 19 21 23 25 28 29 29 29 30 31 30 29 29 30 31
4 3 7 11 11 2 5 6 7 11 6 19 17 16 9 16 16 12 8 7 9 9 8 10 11 13 14 16 19 21 22 24 26 30 31 32 31 32 32 32 31 32 31 30
3 3 8 10 16 11 8 11 15 11 5 10 11 17 22 22 15 14 8 9 9 11 11 11 11 13 14 16 17 19 23 25 27 30 32 33 34 36 35 35 34 32 32 32
1 8 10 14 16 17 15 17 19 17 20 15 23 23 21 20 11 11 9 10 12 15 15 14 15 14 14 15 16 18 21 25 28 30 31 33 35 36 37 38 37 36 34 32
2 7 6 10 12 15 18 22 20 21 22 24 24 27 17 5 4 9 15 17 20 22 22 21 20 20 19 17 18 19 20 21 25 29 31 33 36 39 40 39 41 39 37 38
4 4 5 18 15 15 12 19 20 22 23 21 18 11 6 0 4 11 21 25 25 25 27 29 28 28 28 28 27 25 27 27 29 38 38 37 38 38 40 43 42 43 42 40
10 4 6 9 1 12 11 4 8 9 10 5 5 4 4 1 9 20 23 24 26 28 29 29 31 34 34 32 30 32 35 33 32 35 40 42 42 42 41 42 44 46 47 46
18 12 7 5 9 15 18 10 5 5 8 3 10 5 5 9 24 26 22 24 26 28 30 32 33 33 33 37 39 39 41 38 37 35 34 34 34 39 45 45 46 47 50 51
7 13 9 5 7 9 4 4 4 2 10 4 5 1 7 18 12 13 26 26 26 28 28 30 31 35 36 37 41 42 43 41 40 38 38 38 37 40 47 52 52 51 51 54
3 5 14 14 12 9 2 6 3 5 5 6 5 14 20 12 16 25 26 28 26 25 26 29 32 37 43 43 37 38 40 44 44 44 44 43 41 40 43 45 53 59 59 59
7 5 6 6 9 13 3 6 7 5 18 22 23 26 22 22 22 24 25 23 24 28 33 35 39 44 48 46 44 47 46 44 42 42 42 43 41 40 41 43 48 48 52 56
6 10 7 8 4 4 11 9 16 23 24 25 23 23 18 17 20 20 21 22 24 27 32 36 39 48 52 49 41 42 47 45 46 47 50 48 46 47 45 43 42 42 43 45
13 25 13 14 16 24 29 30 29 27 24 25 20 20 18 15 17 23 23 25 26 29 31 36 42 50 53 50 46 45 47 46 47 48 46 45 45 47 47 47 47 48 47 44
13 11 13 15 21 27 32 31 34 29 22 23 21 19 20 19 21 22 25 27 27 31 35 37 42 45 49 50 49 47 47 44 45 43 43 42 42 40 40 39 38 39 40 39
25 19 13 15 26 22 28 28 21 19 17 18 20 19 18 19 22 23 26 27 30 35 37 38 41 44 47 46 47 44 40 38 40 42 41 41 41 42 41 41 42 37 37 38
Wind_Direction
198 219 222 241 236 255 283 288 282 287 294 288 289 299 297 288 284 270 287 302 317 5 26 32 37 41 49 44 37 15 338 304 289 276 260 252 250 250 253 253 253 252 252 248
190 236 252 263 272 290 278 277 280 282 279 302 290 295 281 282 271 282 301 303 320 32 46 55 46 46 52 50 48 34 18 3 338 299 280 266 261 260 259 261 258 254 253 254
252 273 349 280 260 264 262 272 282 287 305 286 291 288 254 249 260 274 19 355 31 69 66 47 46 42 47 50 53 48 35 24 359 325 297 286 272 266 267 263 265 264 258 254
266 303 273 265 260 265 279 283 286 285 290 287 9 294 295 302 272 141 92 59 38 61 63 52 49 45 41 38 39 40 37 29 20 4 335 306 293 288 283 282 279 275 271 264
266 202 217 242 246 248 253 334 278 273 269 287 271 243 256 259 257 91 84 67 63 67 60 48 41 38 34 29 29 29 30 23 19 11 355 324 301 295 298 288 282 281 278 275
258 49 252 244 225 226 25 275 262 264 267 259 260 234 302 325 138 153 79 78 74 67 52 42 39 31 32 29 27 22 21 22 15 3 352 335 318 306 295 298 285 279 283 282
254 221 223 227 244 191 224 271 287 261 229 256 299 283 248 283 288 72 108 91 81 65 53 46 39 29 22 20 19 18 14 9 8 6 1 352 337 322 312 306 296 280 281 282
279 275 197 165 232 311 203 257 271 294 279 293 301 268 260 323 92 107 103 91 73 49 35 29 22 14 7 2 0 0 0 356 357 357 355 353 349 343 331 317 304 290 279 279
282 245 109 183 137 309 359 232 276 271 272 275 270 273 275 259 133 103 86 62 37 22 15 11 6 2 359 355 354 353 350 352 353 354 354 350 346 344 343 334 318 303 296 293
314 286 247 343 147 216 230 25 259 216 246 259 272 279 283 284 110 59 44 44 36 25 15 5 0 353 348 343 340 339 337 337 334 337 341 344 345 345 341 340 338 329 310 297
305 272 276 283 234 255 228 245 230 262 251 265 273 271 295 49 63 67 34 23 8 3 358 359 355 351 348 348 347 345 342 342 338 338 339 338 338 339 340 339 335 335 335 323
276 295 287 274 281 289 285 278 273 262 268 246 249 257 283 5 89 41 357 6 360 346 336 348 352 349 347 346 346 346 342 340 336 336 338 336 334 336 337 337 332 329 329 333
24 237 287 293 266 30 311 340 341 319 296 259 264 263 345 325 331 44 339 331 325 325 316 327 336 335 335 335 336 339 336 332 328 331 332 332 332 331 332 331 331 332 328 326
91 239 240 258 289 326 281 289 290 278 259 282 270 293 293 296 329 351 341 328 320 323 307 298 315 318 321 321 322 325 326 325 323 322 324 325 325 325 326 328 330 329 327 327
263 258 263 270 286 294 282 277 273 269 269 265 280 282 284 298 320 318 318 319 314 322 319 304 309 310 306 302 304 309 312 317 317 316 316 315 316 316 317 319 321 324 326 327
165 266 300 275 272 273 276 270 268 271 266 264 267 269 284 25 300 317 332 331 324 318 319 316 303 306 313 311 308 302 296 293 300 306 305 304 305 308 311 312 313 316 318 321
231 240 256 269 287 307 282 264 262 262 261 271 279 313 42 145 341 343 330 327 319 316 316 318 310 305 308 311 314 311 305 294 288 305 306 303 300 298 299 303 305 307 309 312
247 225 254 277 335 255 259 338 278 278 283 267 260 232 178 253 317 320 317 313 310 314 312 310 309 305 301 300 303 306 308 298 290 292 298 303 302 300 296 295 296 298 300 302
233 240 245 245 237 286 299 291 258 277 294 268 253 264 238 298 316 302 306 316 309 308 305 304 305 302 297 296 305 308 305 300 295 290 288 285 282 287 293 292 291 291 293 295
224 226 225 196 246 266 350 118 90 148 283 93 128 227 281 301 294 297 313 311 306 305 304 305 301 297 297 299 304 306 303 301 297 296 294 289 282 279 282 289 288 288 288 289
168 212 225 234 245 259 287 145 148 266 321 135 226 304 304 288 290 304 308 306 306 303 302 304 299 295 296 302 306 302 300 296 297 297 294 290 284 281 279 275 283 288 287 285
202 205 214 238 257 268 218 141 223 299 320 305 303 298 297 295 295 300 303 303 306 306 304 303 300 300 301 302 304 302 299 299 297 295 293 288 284 281 276 273 277 282 288 289
236 230 247 215 242 241 192 244 248 286 291 292 293 293 293 289 296 300 303 305 306 305 303 303 301 301 303 305 304 299 297 297 295 291 287 291 294 289 286 286 286 285 284 283
256 251 252 261 255 261 272 275 276 277 280 290 283 280 285 289 296 296 301 304 305 306 305 304 305 306 308 311 309 304 304 302 302 302 302 300 297 293 289 285 283 281 279 277
247 274 253 255 260 266 266 267 270 276 270 268 274 278 286 292 295 300 301 304 306 306 307 308 309 311 311 313 312 311 310 310 308 305 304 303 301 298 295 290 285 282 278 275
248 254 257 261 266 261 270 277 285 275 263 267 273 280 285 291 297 301 302 306 308 310 313 316 317 315 316 313 312 311 314 314 310 308 307 304 301 300 296 293 292 291 285 281